Regional Weather Roundup
Issued by NWS Nashville, TN

Home | Current Version | Previous Version | Text Only | Print | Product List | Glossary On
Versions: 1 2 3 4 5 6 7 8 9 10 11 12 13 14 15 16 17 18 19 20 21 22 23 24 25 26 27 28
000
ASUS44 KOHX 250310
RWROHX
MIDDLE TENNESSEE HOURLY WEATHER ROUNDUP
NATIONAL WEATHER SERVICE NASHVILLE TN
1000 PM CDT SUN JUL 24 2016

NOTE: "FAIR" INDICATES FEW OR NO CLOUDS BELOW 12,000 FEET WITH
NO SIGNIFICANT WEATHER AND/OR OBSTRUCTIONS TO VISIBILITY.

* THESE REPORTS ARE NOT UNDER NWS QUALITY CONTROL AND MAY NOT
  REPORT WEATHER SUCH AS PRECIPITATION AND FOG.


TNZ005>011-023>034-057-059-062>066-078-080-250400
...NORTHERN MIDDLE TENNESSEE...

CITY           SKY/WX    TMP DP  RH WIND       PRES   REMARKS
CLARKSVILLE    CLOUDY    83  75  77 CALM      29.99S HX  90
CROSSVILLE     CLEAR     74  73  97 CALM      30.12R
NASHVILLE      MOCLDY    85  71  63 CALM      30.02R HX  90
SMYRNA         CLOUDY    83  73  71 CALM      30.03R
SPARTA         CLEAR     79  75  89 CALM      30.05S
$$
TNZ056-058-060-061-075>077-079-093>097-250400
...SOUTHERN MIDDLE TENNESSEE...

CITY           SKY/WX    TMP DP  RH WIND       PRES   REMARKS
COLUMBIA       CLEAR    N/A N/A N/A CALM      30.01F
FAYETTEVILLE   CLEAR     77  73  88 CALM      30.05S
MCMINNVILLE    CLEAR     79  75  89 CALM      30.06S
SHELBYVILLE    CLEAR     81  75  83 E3        30.05R
TULLAHOMA      CLEAR     79  70  73 E3        30.07S
WINCHESTER     CLEAR     75  72  88 S3        30.07R
$$


...KEY TO REMARKS...
VSB - VISIBILITY IN MILES
WCI - WIND CHILL INDEX
HX  - HEAT INDEX





USA.gov is the U.S. government's official web portal to all federal, state and local government web resources and services.